{"data":{"norad_id":45131,"intl_designator":"2020-008A","name":"ONEWEB-0013","alt_names":[],"object_type":"PAYLOAD","status":"ACTIVE","operator":null,"country":"UK","launch_date":"2020-02-06","launch_site_code":"TYMSC","launch_vehicle":null,"mission":null,"orbit_class":"UNKNOWN","rcs_meters":null,"size_class":null,"mass_kg":null,"dimensions":null,"purposes":["comms"],"wikipedia_slug":null,"has_3d_model":false,"image_url":null,"decayed_at":null,"tle_current":{"epoch":"2026-05-25T04:05:18.678912Z","epoch_age_seconds":57640,"freshness":"FRESH","line1":"1 45131U 20008A   26145.17035508 -.00000751  00000+0 -22177-2 0  9996","line2":"2 45131  87.8533  57.4666 0002848  73.6491 286.4949 13.09456021303050","mean_motion":13.09456021,"eccentricity":0.0002848,"inclination_deg":87.8533,"raan_deg":57.4666,"arg_perigee_deg":73.6491,"mean_anomaly_deg":286.4949,"bstar":-0.0022177,"rev_number":30305,"period_min":109.96932901193,"perigee_km":1223.0985709907,"apogee_km":1227.4294682114,"semimajor_km":7603.4010196011,"source":"CELESTRAK","updated_at":"2026-05-25T13:38:22.332446Z"}}}